{"data":{"norad_id":60186,"epoch":"2026-05-24T21:03:18.792576Z","epoch_age_seconds":81556,"freshness":"FRESH","line1":"1 60186U 24124D   26144.87730084 -.00000364  00000+0  18482-5 0  9999","line2":"2 60186  53.1587 145.4282 0000961  86.8654 273.2474 15.69701818108500","mean_motion":15.69701818,"eccentricity":9.61e-5,"inclination_deg":53.1587,"raan_deg":145.4282,"arg_perigee_deg":86.8654,"mean_anomaly_deg":273.2474,"bstar":1.8482e-6,"rev_number":10850,"period_min":91.737168390029,"perigee_km":359.10265331709,"apogee_km":360.39767523007,"semimajor_km":6737.8871642736,"source":"CELESTRAK","updated_at":"2026-05-25T13:38:19.193740Z"}}